Preview of NWS' New Version of Forecast
This preview is not operational and should not be used for support decisions.

Regional Weather Roundup (RWR)

Issued by National Weather Service (NWS)

                            
000
ASCA42 TJSJ 222310
RWRPR 
PUERTO RICO/U.S. VIRGIN ISLANDS HOURLY WEATHER ROUNDUP
NATIONAL WEATHER SERVICE SAN JUAN PR
700 PM AST WED MAY 22 2019

PRZ001>002-007>008-010-230000-
PUERTO RICO
  
CITY           SKY/WX    TMP DP  RH WIND       PRES   REMARKS
SAN JUAN LMM   PTCLDY    82  73  74 E12       29.94R                  
AGUADILLA      MOCLDY    81  75  83 E7        29.96S                  
$$

VIZ001>002-230000-
U.S. VIRGIN ISLANDS
  
CITY           SKY/WX    TMP DP  RH WIND       PRES   REMARKS
CHARLOTTE AMA  CLEAR     82  72  69 SE9       29.94R                  
CHRISTIANSTED  MOCLDY    81  72  74 E12       29.95R                  
$$

HOURLY WEATHER ROUNDUP FOR THE NEWS MEDIA
  
CITY           SKY/WX    TMP DP  RH WIND       PRES   REMARKS
ORLANDO        FAIR      83  62  49 E16       30.10S                  
NEW YORK       PTSUNNY   65  48  54 S13       30.22S                  
NEWARK         PTSUNNY   73  38  27 S9        30.19F                  
CHICAGO        PTSUNNY   81  54  39 S24G36    29.82S                  
HARTFORD       FAIR      57  38  48 S8        30.24R                  
BOSTON         PTSUNNY   60  39  45 E10       30.23S                  
DALLAS         PTSUNNY   89  68  49 S17G26    29.77R HX  93           
PHILADELPHIA   PTSUNNY   73  41  31 SW12      30.21F                  
LOS ANGELES    TSTM      59  48  67 S15G23    29.74S                  
WASHINGTON DC  PTSUNNY   68  48  48 SE7       30.21F